Regional Weather Roundup
Issued by NWS Sterling, VA

Home | Current Version | Previous Version | Graphics & Text | Print | Product List | Glossary On
Versions: 1 2 3 4 5 6 7 8 9 10 11 12 13 14 15 16 17 18 19 20 21 22 23 24 25 26 27 28 29 30 31 32 33 34 35 36 37 38 39 40 41 42 43 44 45 46 47 48 49 50
000
ASUS41 KLWX 272010
RWRLWX

REGIONAL WEATHER ROUNDUP
NATIONAL WEATHER SERVICE BALTIMORE MD/WASHINGTON DC
400 PM EDT FRI MAR 27 2015

Note: "FAIR" indicates few or no clouds below 12,000 feet
with no significant weather and/or obstructions to visibility.
 TC=TEMPERATURE CELSIUS

 * =Non NWS site. Station does not report precipitation (e.g. rain,
    snow, etc.), thunder, or fog.

DCZ001-MDZ009-015-VAZ040>042-051-053>054-272100-
WASHINGTON METRO

CITY           SKY/WX    TMP DP  RH WIND       PRES   REMARKS
WASHINGTON NAT CLOUDY    50  32  50 NE6       29.77F
DULLES         CLOUDY    47  29  49 N9        29.77F
ANDREWS AFB    CLOUDY    46  31  57 N12       29.75F
FT BELVOIR     CLOUDY    49  30  47 NW10G18   29.77F
QUANTICO       CLOUDY    49  32  52 NE10      29.78F
COLLEGE PARK*  CLOUDY    48  32  53 N9        29.76F
LEESBURG*      CLOUDY    46  32  57 N12       29.77F
MANASSAS*      PTSUNNY   48  32  53 NE9G16    29.77F
GAITHERSBURG*  CLOUDY    46  27  46 N5        29.79S

$$

MDZ006>007-011-014-272100-
BALTIMORE METRO

CITY           SKY/WX    TMP DP  RH WIND       PRES   REMARKS
BWI AIRPORT    CLOUDY    48  28  46 N8        29.74F
MD SCIENCE CTR   N/A     48  26  42 MISG      29.76F
MARTIN STATE   PTSUNNY   46  32  57 N6        29.78F
ANNAPOLIS      CLOUDY    43  38  82 SE9       29.76F

$$

MDZ012-015-019>023-272100-
MARYLAND EASTERN SHORE

CITY           SKY/WX    TMP DP  RH WIND       PRES   REMARKS
OCEAN CITY     LGT RAIN  39  36  89 N10       29.78S
SALISBURY      RAIN      38  35  89 N13       29.75F FOG
BAY BRIDGE AP*   N/A     43  36  75 CALM      29.77F
CAMBRIDGE*     CLOUDY    41  36  81 NE5       29.77F
EASTON*        LGT RAIN  41  41 100 CALM      29.80F

$$

MDZ017>025-272100-
SOUTHERN MARYLAND

CITY           SKY/WX    TMP DP  RH WIND       PRES   REMARKS
PATUXENT RIVER LGT RAIN  40  36  86 NE6       29.78F
ST INIGOES     CLOUDY    41  35  79 N3        29.76F
LEONARDTOWN*   CLOUDY    37  34  87 CALM      29.78F

$$

MDZ003>005-272100-
NORTH CENTRAL MARYLAND

CITY           SKY/WX    TMP DP  RH WIND       PRES   REMARKS
FREDERICK*     PTSUNNY   50  19  29 NW7       29.78
HAGERSTOWN APT CLOUDY    46  23  40 NW7       29.76F
WESTMINSTER*   CLOUDY    45  25  45 N7        29.74F

$$

MDZ501>502-272100-
WESTERN MARYLAND

CITY           SKY/WX    TMP DP  RH WIND       PRES   REMARKS
OAKLAND*       CLOUDY    32  32 100 W7        29.73S
CUMBERLAND*    CLOUDY    45  25  45 NW7       29.82S

$$

VAZ025>031-272100-
SHENANDOAH VALLEY

CITY           SKY/WX    TMP DP  RH WIND       PRES   REMARKS
WINCHESTER*    CLOUDY    46  21  36 N10G18    29.75F
FRONT ROYAL*   CLOUDY    46  27  46 N7        29.75S
LURAY*         CLOUDY    50  32  50 N5        29.74F
NEW MARKET*    CLOUDY    47  28  47 NE7       29.74S
STAUNTON*      CLOUDY    50  30  47 NE8       29.75F
WAYNESBORO*    CLOUDY    45  32  61 N3        29.73S

$$

WVZ021-048>050-054>055-272100-
EASTERN WEST VIRGINIA PANHANDLE

CITY           SKY/WX    TMP DP  RH WIND       PRES   REMARKS
MARTINSBURG    PTSUNNY   48  25  40 NW10      29.76F
PETERSBURG*    CLOUDY    43  22  43 NW15      29.78S

$$

VAZ036>039-050-272100-
CENTRAL FOOTHILLS

CITY           SKY/WX    TMP DP  RH WIND       PRES   REMARKS
CHARLOTTESVILL CLOUDY    47  36  65 VRB5      29.75F
CULPEPER*      CLOUDY    50  34  53 NE7       29.76F
ORANGE*        CLOUDY    46  34  61 N5        29.77F
GORDONSVILLE*  CLOUDY    45  34  66 CALM      29.75F
WARRENTON*     PTSUNNY   49  37  63 N8        29.76F

$$

VAZ055>057-272100-
NORTH AND CENTRAL PIEDMONT

CITY           SKY/WX    TMP DP  RH WIND       PRES   REMARKS
FREDERICKSBRG* CLOUDY    49  34  56 N9        29.76F
STAFFORD*      CLOUDY    47  31  52 N9        29.80F

$$

NCZ024-NYZ072-PAZ021-071-VAZ022-071-272100-
OTHER REGIONAL OBSERVATIONS

CITY           SKY/WX    TMP DP  RH WIND       PRES   REMARKS
NEW YORK CITY  CLOUDY    45  31  58 N9        29.73F
PHILADELPHIA   CLOUDY    47  27  45 N13G18    29.75S
PITTSBURGH     LGT SNOW  31  24  75 NW14      29.86S WCI  21
ROANOKE        CLOUDY    48  29  47 N6        29.77F
RICHMOND       LGT RAIN  43  36  76 N8        29.78F
RALEIGH        DRIZZLE   44  41  89 NE14      29.75F FOG

$$

ANZ530>537-272100-
MARINE OBSERVATIONS

STATION/POSITION TIME  TEMP    WIND        PRES
                       AIR SEA DIR/SP/G
                 (UTC) (F)     (DEG/KT/KT) (MB)
THOMAS PT LIGHT  2000                        N/A
BALT KEY BRIDGE  1900   45     320/  6/  7 1008.1F
COVE POINT       1900   38      50/  5/  7 1008.8F
LEWISETTA        1900   38 47              1008.6F
SOLOMONS ISLAND  1900      44                N/A
PINEY POINT      1900           50/  6/  7   N/A

$$



USA.gov is the U.S. government's official web portal to all federal, state and local government web resources and services.